Regional Weather Roundup
Issued by NWS

Home | Current Version | Previous Version | Text Only | Print | Product List | Glossary Off
Versions: 1 2 3 4 5 6 7 8 9 10 11 12 13 14 15 16 17 18 19 20 21 22 23 24 25 26 27 28 29 30 31 32 33 34 35 36 37 38 39 40 41 42 43 44 45 46 47 48 49 50

000
ASUS43 KBIS 231810
RWRND

NORTH DAKOTA REGIONAL WEATHER ROUNDUP
NATIONAL WEATHER SERVICE BISMARCK ND
100 PM CDT WED JUL 23 2014

NOTE: "FAIR" INDICATES FEW OR NO CLOUDS BELOW 12,000 FEET WITH NO
SIGNIFICANT WEATHER AND/OR OBSTRUCTIONS TO VISIBILITY.


NDZ001>003-009>011-017-231900-
NORTHWEST NORTH DAKOTA

CITY           SKY/WX    TMP DP  RH WIND       PRES   REMARKS
WILLISTON      MOSUNNY   84  62  47 SE14      30.18F
6HR MIN TEMP:  66; 6HR MAX TEMP:  84;

MINOT          CLOUDY    71  64  78 E17       30.25F
MINOT AFB      CLOUDY    71  65  83 E18       30.25S
$$

NDZ018>021-031>035-040>046-231900-
SOUTHWEST NORTH DAKOTA

CITY           SKY/WX    TMP DP  RH WIND       PRES   REMARKS
BISMARCK       MOSUNNY   77  62  59 SE17      30.25F
6HR MIN TEMP:  64; 6HR MAX TEMP:  79;

DICKINSON      MOSUNNY   79  65  62 SE17G24   30.19F
GARRISON         N/A     75  66  73 SE12      30.24F
6HR MIN TEMP:  64; 6HR MAX TEMP:  76;

HETTINGER ARPT SUNNY     80  62  54 SE18G25   30.21F
$$

NDZ004>008-012>016-024-026-027-054-231900-
NORTHEAST NORTH DAKOTA

CITY           SKY/WX    TMP DP  RH WIND       PRES   REMARKS
GRAND FORKS    PTSUNNY   71  57  61 N8        30.29F
GRND FRKS AFB  MOSUNNY   71  57  61 NE8       30.30F
DEVILS LAKE    MOSUNNY   70  54  56 E9        30.30F
$$

NDZ022-023-025-028>030-036>039-047>053-231900-
SOUTHEAST NORTH DAKOTA

CITY           SKY/WX    TMP DP  RH WIND       PRES   REMARKS
FARGO          CLOUDY    75  58  55 N6        30.27F
6HR MIN TEMP:  60; 6HR MAX TEMP:  75;

JAMESTOWN      SUNNY     75  55  49 S7        30.29F
$$



USA.gov is the U.S. government's official web portal to all federal, state and local government web resources and services.